STARLINK BC

Last updated on Wed Jun 21 2023 00:02:05 GMT+0000 (Coordinated Universal Time)

1 56926U 23083BC 23171.66667824 -.00838779 00000+0 -63283-2 0 9990 2 56926 43.0067 94.1619 0001546 261.8803 24.7998 15.73913556 1302

Satellite not in orbit